Location: Avereest
(52.6192°N, 6.3708°E)
Time: 06:34:34
(UTC+00:00)

Daily predictions for brighter satellites

Satellite Brightness Start Highest point End
(mag) Time Altitude Azimuth Time Altitude Azimuth Time Altitude Azimuth
Cosmos 1634 Rocket 4.5 20:20:53 10° NNW 20:27:00 64° W 20:33:03 10° S
SPOT 3 Rocket 3.8 20:24:42 10° SSE 20:29:48 61° ENE 20:34:58 10° N
Cosmos 1943 Rocket 4.1 20:25:02 10° WSW 20:30:07 36° NW 20:35:17 10° NNE
Sich 1 Rocket 3.8 20:27:43 10° N 20:32:17 67° ENE 20:36:48 10° SSE
Spot 2 Rocket 3.6 20:28:56 10° SSE 20:34:03 86° WSW 20:39:10 10° NNW
Cosmos 1818 3.8 20:31:35 10° NW 20:37:02 71° SW 20:42:26 10° SSE
Cosmos 1486 Rocket 4.1 20:32:18 10° SSW 20:37:35 86° WNW 20:42:56 10° NNE
ATLAS 5 CENTAUR R/B 4.0 20:35:55 10° WNW 20:38:28 19° NNW 20:41:18 10° NE
Cosmos 1833 4.3 20:32:53 10° NNW 20:38:38 86° ENE 20:44:17 10° SSE
IRS-1C Rocket 4.1 20:33:33 10° SSE 20:38:48 81° ENE 20:44:06 10° NNW
Cosmos 1674 Rocket 3.6 20:35:29 10° S 20:39:52 69° E 20:44:18 10° NNE
Cosmos 1538 Rocket 4.5 20:36:59 10° NNW 20:42:16 55° ENE 20:47:32 10° SE
Cosmos 2279 Rocket 4.4 20:37:36 10° NNW 20:43:49 69° W 20:50:01 10° S
ERS-1 Rocket 4.0 20:40:46 10° S 20:45:32 44° W 20:50:19 10° NNW
USA 245 3.5 20:42:14 10° S 20:46:17 64° WSW 20:49:34 10° NNW
Meteor 1-21 Rocket 4.2 20:44:14 10° S 20:49:53 87° ESE 20:55:29 10° NNE
Cosmos 2297 3.7 20:44:17 10° SSW 20:49:55 77° ESE 20:55:38 10° NNE
Cosmos 1812 2.5 20:47:34 10° N 20:50:41 53° ENE 20:53:43 10° SSE
PSLV R/B 3.6 20:49:20 10° SSE 20:52:23 51° ENE 20:55:27 10° N
Okean-O 3.9 20:48:39 10° SSW 20:52:45 38° W 20:56:52 10° NNW
Meteor 1-11 4.4 20:48:13 10° S 20:53:56 60° E 20:59:38 10° NNE
Meteor 2-1 Rocket 4.4 20:49:54 10° N 20:55:47 74° ENE 21:01:29 10° SSE
Cosmos 1378 Rocket 3.9 20:51:39 10° SSW 20:55:54 65° WNW 21:00:11 10° N
Cosmos 1656 Rocket 4.2 20:50:38 10° SW 20:56:08 65° NW 21:01:36 10° NNE
ATLAS 2AS CENTAUR R/B 4.3 20:49:58 10° WNW 20:56:11 34° N 21:02:15 10° ENE
BlueWalker 3 1.8 20:54:27 10° W 20:58:09 84° N 21:01:50 10° E
Meteor 2-12 Rocket 4.5 20:52:31 10° S 20:58:40 78° E 21:04:48 10° NNE
Okean O Rocket 3.5 20:55:54 10° SSW 20:59:36 27° W 21:03:21 10° NW
Cosmos 990 Rocket 4.1 20:55:19 10° S 21:00:21 55° ESE 21:05:27 10° NNE
Cosmos 1025 Rocket 3.0 20:56:04 10° S 21:00:23 71° E 21:04:45 10° NNE
RESURS DK-1 3.6 21:09:46 10° NNW 21:13:23 31° NE 21:16:58 10° ESE
DNEPR-1 R/B 3.5 21:16:40 10° NW 21:20:57 89° SSW 21:24:32 15° SE
USA 215 3.7 21:15:18 10° E 21:21:47 66° N 21:28:16 10° WNW
Cosmos 2369 Rocket 2.6 21:19:33 10° SW 21:25:13 68° NW 21:30:55 10° NNE
Cosmos 1400 Rocket 4.2 21:22:25 10° N 21:25:39 25° ENE 21:28:20 13° ESE
ASTEX 1 3.8 21:21:06 10° N 21:25:56 65° W 21:30:44 10° SSW
Meteor 1-27 4.4 21:23:14 10° N 21:29:00 66° ENE 21:33:45 15° SSE
Cosmos 1354 Rocket 4.3 21:24:08 10° SW 21:29:21 70° WNW 21:34:35 10° NNE
Cosmos 2297 Rocket 3.0 21:28:49 10° NNW 21:34:14 44° NE 21:39:27 11° ESE
ISS -3.6 21:32:05 10° W 21:35:21 52° SSW 21:37:41 17° SE
COBE Rocket 3.7 21:31:10 10° NNE 21:35:52 81° ESE 21:40:28 10° S
Cosmos 1937 Rocket 4.2 21:34:19 15° SSE 21:37:57 35° ESE 21:42:34 10° NE
Ariane Rocket 3.9 21:33:20 10° S 21:38:09 45° W 21:43:01 10° NNW
Cosmos 1680 Rocket 4.0 21:33:03 10° NNW 21:38:15 54° ENE 21:42:31 15° SE
Cosmos 2098 Rocket 2.7 21:35:21 10° N 21:38:28 54° ENE 21:40:46 19° SSE
CZ-4C R/B 1.8 21:42:30 10° SW 21:46:57 74° SE 21:52:40 10° NE
ALOS 2 4.1 21:44:36 12° ESE 21:47:56 26° ENE 21:51:35 10° N
Cosmos 1627 Rocket 4.4 21:42:35 11° S 21:48:34 79° E 21:54:42 10° NNE
Cosmos 923 Rocket 4.0 21:44:26 10° NNW 21:49:40 82° ENE 21:53:32 18° SSE
Cosmos 1515 3.9 21:47:20 10° NNW 21:49:46 35° W 21:51:23 17° SSW
Lacrosse 5 rocket 2.2 21:47:20 10° WNW 21:51:08 47° N 21:54:57 10° E
Cosmos 44 3.0 21:47:40 10° SW 21:51:59 89° SE 21:56:29 10° NE
Cosmos 1975 Rocket 3.0 21:53:27 15° S 21:57:04 86° E 22:01:24 10° NNE
MetOp-A 4.0 21:55:24 19° SE 21:57:47 42° ENE 22:01:23 10° N
Cosmos 2228 2.9 21:56:06 10° NNW 22:00:20 87° WSW 22:03:10 21° S
Cosmos 1455 Rocket 4.1 21:59:25 10° NNW 22:03:25 38° W 22:07:03 12° SSW
Cosmos 2227 Rocket 3.3 22:01:37 10° NNW 22:06:57 39° NE 22:12:15 10° ESE
Cosmos 2285 Rocket 4.2 22:02:34 10° SSW 22:08:57 75° WNW 22:15:26 10° NNE
Meteor 2-20 4.5 22:03:07 10° NNW 22:09:19 88° WSW 22:13:55 19° S
Gbstr 26 Del rocket 3.7 22:04:23 10° W 22:09:30 61° SSW 22:15:20 12° ESE
Cosmos 1867 3.6 22:04:14 10° SSW 22:09:36 64° SE 22:15:02 10° NE
Cosmos 494 Rocket 4.3 22:05:44 10° NNW 22:10:55 59° ENE 22:14:40 18° SE
BREEZE M DEB (TANK) 3.5 22:08:04 10° SW 22:10:09 22° SSW 22:10:09 22° SSW
BREEZE-M DEB (TANK) 3.1 22:08:27 10° WSW 22:16:43 61° S 22:19:40 10° E
Cosmos 2026 Rocket 4.3 22:12:30 10° SSW 22:18:32 65° WNW 22:24:34 10° N
CZ-2C R/B 4.0 22:16:11 10° NNE 22:20:51 56° E 22:23:39 23° S
Cosmos 1898 Rocket 3.5 22:16:21 10° SSW 22:21:34 86° WNW 22:26:52 10° NNE
ATLAS 5 CENTAUR R/B 4.1 22:19:45 10° NW 22:22:32 19° NNE 22:25:42 10° ENE
Spot 4 4.0 22:21:20 22° SSE 22:24:26 67° ENE 22:29:13 10° N
Landsat 5 4.1 22:24:57 10° NNE 22:28:27 34° E 22:29:50 25° SE
Cosmos 1553 Rocket 4.2 22:25:05 10° NNW 22:31:19 72° W 22:35:55 20° S
ARIANE 5 R/B 2.6 22:30:39 25° S 22:33:15 81° WSW 22:37:43 10° NNW
BlueWalker 3 2.2 22:32:12 10° W 22:35:44 44° SSW 22:36:56 32° SSE
Cosmos 1315 Rocket 4.5 22:33:20 10° N 22:36:29 24° ENE 22:38:48 14° ESE
SL-08 ROCKET BODY 4.3 22:36:29 21° S 22:40:37 79° E 22:46:31 10° NNE
DELTA 2 DEB (DPAF) 4.5 22:40:44 10° N 22:44:33 52° WNW 22:47:30 16° SW
CZ-4C R/B 3.2 22:40:56 10° NNE 22:44:34 80° WNW 22:46:39 25° SSW
Cosmos 1933 4.2 22:42:09 10° N 22:45:49 38° ENE 22:47:44 23° SE
ATLAS 2AS CENTAUR R/B 3.3 22:41:40 10° NW 22:48:25 56° NNE 22:55:00 10° ESE
SOZ 3.9 22:47:59 10° W 22:50:08 73° S 22:50:38 47° ESE
Cosmos 1417 Rocket 4.5 22:44:29 10° NNW 22:50:40 85° W 22:54:39 23° S
Cosmos 1536 Rocket 3.5 22:48:20 26° S 22:50:46 84° E 22:55:12 10° NNE
RESURS DK-1 3.1 22:47:12 10° NW 22:50:56 39° WSW 22:52:30 27° SSW
Cosmos 1656 3.6 22:47:10 17° SSW 22:51:34 80° ESE 22:57:07 10° NNE
S3M 4.0 22:45:57 10° N 22:52:19 86° E 22:56:23 23° S
Cosmos 2263 Rocket 3.1 22:49:05 10° NNW 22:54:31 45° NE 22:59:46 10° ESE
Cosmos 1606 Rocket 3.5 22:52:14 10° N 22:56:37 84° ENE 22:58:50 29° SSE
Cosmos 1400 Rocket 3.8 22:57:48 10° NNW 23:01:17 34° W 23:03:02 22° SW
Cosmos 2058 2.7 23:01:15 30° S 23:03:07 89° WNW 23:07:05 10° N
USA 215 3.2 22:58:14 10° SE 23:04:47 76° SSW 23:11:22 10° WNW
Cosmos 1782 2.9 23:04:22 10° NNW 23:07:59 56° W 23:09:26 32° SSW
Cosmos 1602 3.7 23:07:46 37° SE 23:08:33 47° E 23:11:39 10° NNE
ISS -1.7 23:09:18 10° W 23:10:32 15° WSW 23:10:32 15° WSW
Cosmos 1655 Rocket 4.2 23:09:38 24° SSE 23:13:36 62° E 23:19:53 10° NNE
Cosmos 2297 Rocket 2.8 23:12:58 10° NW 23:18:19 44° WSW 23:21:13 24° SSW
Cosmos 1862 3.0 23:18:17 37° S 23:19:37 76° E 23:23:17 10° NNE
Cosmos 2219 3.8 23:14:04 10° NNW 23:19:40 54° NE 23:24:44 12° SE
Cosmos 1937 Rocket 4.5 23:14:51 10° SW 23:19:44 44° NW 23:24:39 10° NNE
Cosmos 1726 Rocket 3.7 23:15:14 10° NNW 23:19:51 80° W 23:22:11 29° S
Cosmos 2058 Rocket 3.4 23:17:12 10° N 23:21:38 60° ENE 23:23:59 26° SSE
PSLV R/B 3.7 23:17:23 10° NNE 23:22:05 79° ESE 23:24:32 28° S
ALOS 2 3.2 23:22:00 27° SSW 23:24:03 47° W 23:28:19 10° NNW
Lacrosse 5 rocket 1.1 23:24:47 10° WNW 23:28:43 75° SSW 23:31:05 23° SE
Cosmos 1980 Rocket 3.1 23:28:23 23° SSE 23:30:54 33° ESE 23:35:52 10° NE
Cosmos 468 4.5 23:26:55 10° NNW 23:32:17 86° WSW 23:35:26 25° SSE
Cosmos 1356 Rocket 3.3 23:29:32 10° NNW 23:33:35 78° WSW 23:35:17 34° S
Cosmos 1697 Rocket 2.7 23:32:02 25° SSW 23:35:22 68° ESE 23:41:01 10° NE
CZ-4C R/B 3.7 23:31:05 10° W 23:35:44 38° NNW 23:41:40 10° NE
Cosmos 2360 4.4 23:33:07 16° SW 23:37:43 73° WNW 23:43:27 10° NNE
Spot 1 4.2 23:34:50 10° NNE 23:39:41 87° ESE 23:42:05 29° SSW
CZ-2C R/B 3.5 23:36:52 14° SE 23:41:20 48° ENE 23:46:43 10° N
Cosmos 1892 Rocket 3.4 23:39:40 31° S 23:41:40 89° W 23:46:01 10° N
PSLV R/B 3.9 23:38:10 10° NNE 23:42:08 66° ESE 23:43:44 34° S
Cosmos 1441 Rocket 2.8 23:44:49 41° S 23:45:56 80° ESE 23:49:24 10° NNE
GEOS 3 Rocket 3.6 23:42:55 10° NE 23:48:11 72° SE 23:51:46 21° SSW
Cosmos 1844 Rocket 4.4 23:44:45 10° NNW 23:49:46 31° NE 23:54:44 10° ESE
Meteor 2-3 Rocket 3.8 23:46:44 26° S 23:50:11 82° E 23:55:58 10° NNE
Cosmos 2227 Rocket 2.5 23:45:41 10° NW 23:51:10 51° WSW 23:54:07 26° S
Cosmos 1626 Rocket 4.3 23:49:13 25° SSE 23:51:18 42° E 23:55:27 10° NNE
Geosat 4.4 23:50:04 10° NE 23:54:56 48° ESE 23:57:20 27° S
